Houffatrail
VTT Houffalize, 07-08/12/2013, BEL
14km - Classement
14km 
Catégorie
PosNrNomAgeIOCEquipeTempsTkmMoy.RangNomLocalité
1.154BAELUS NickBEL1:07:124:48 12.501MAL
2.172BRYDENBACH TimBEL1:07:124:48 12.502MAL
3.229GRENOT MaximeFRA1:07:544:51 12.373MAL
4.254LEYN DonavanBEL1:10:105:01 11.974MAL
5.315TRILLET DenisBEL1:13:215:15 11.455MAL
6.202DELEEBEECK JoeriBEL1:14:575:22 11.216MAL
7.193DE ROUCK KrisBEL1:17:095:31 10.897MAL
8.158BISSCHOPS JeroenBEL1:17:395:33 10.828MAL
9.221GERARD BenjaminBEL1:17:465:34 10.809MAL
10.321VAN BEEK PeterBEL1:19:595:43 10.5010MAL
11.178FCLAEYS Ann SofieBEL1:20:325:46 10.431FEM
12.269OURDOUILLIE ChristopheFRA1:21:425:51 10.2811MAL
13.157BASTIAN GilbertLUX1:22:455:55 10.1512MAL
14.350FVERSTRAETEN DebbieBEL1:23:465:59 10.032FEM
15.194DE WEERT JackyBEL1:24:056:01 9.9913MAL
16.270PAELINCKX BertBEL1:24:286:02 9.9514MAL
17.266NEVEN StephanBEL1:25:026:05 9.8815MAL
18.300SEMPELS JoeriBEL1:25:056:05 9.8716MAL
19.241IWENS KoenBEL1:25:066:05 9.8717MAL
20.293ROSSIGNOL DirkBEL1:25:456:08 9.8018MAL
21.330VAN GERVEN FrankBEL1:26:006:09 9.7719MAL
22.311THEUNYNCK LodeBEL1:26:226:11 9.7320MAL
23.239IGO MichelBEL1:26:256:11 9.7221MAL
24.338VANDER AUWERA KobeBEL1:26:276:11 9.7222MAL
25.246KEUNEN HermanBEL1:27:296:15 9.6023MAL
26.634MILISSEN WimBEL1:27:466:17 9.5724MAL
27.163BONNAERENS BenBEL1:28:096:18 9.5325MAL
28.189DE KORT SimonBEL1:28:426:21 9.4726MAL
29.187DE FAZANT RafBEL1:28:476:21 9.4627MAL
30.319UERLINGS YvesBEL1:28:546:21 9.4528MAL
31.209DHAENE GuntherBEL1:29:506:25 9.3529MAL
32.1080BLEROT Didier47BEL1:30:136:27 9.3130MAL
33.167BRANTS BobBEL1:30:146:27 9.3131MAL
34.334VAN MAELZAEKE BartBEL1:30:166:27 9.3132MAL
35.314TITS MathieuBEL1:30:206:28 9.3033MAL
36.304SMOLDERS AlexBEL1:30:356:29 9.2734MAL
37.273PEETERS PietBEL1:30:366:29 9.2735MAL
38.181COPPENS ToonBEL1:30:536:30 9.2436MAL
39.182COPPENS PeterBEL1:30:536:30 9.2437MAL
40.550GOORMAN JeroenBEL1:31:016:31 9.2338MAL
41.257FLOOIJER JoanyBEL1:31:156:32 9.213FEM
42.322VAN BUGGENHOUT BobBEL1:31:486:34 9.1539MAL
43.245KERREMANS JeroenBEL1:32:076:35 9.1240MAL
44.213FENGEL AagjeNLD1:32:126:36 9.114FEM
45.1057KINDERVATER PeterBEL1:32:296:37 9.0841MAL
46.308STIERS JimmyBEL1:32:426:38 9.0642MAL
47.335VAN ZUIDAM ErwinNLD1:32:456:38 9.0643MAL
48.188FDE GREVE GeertruiBEL1:32:476:38 9.055FEM
49.290ROCQ NicolasFRA1:32:596:39 9.0344MAL
50.267NIJS StevenBEL1:33:196:40 9.0045MAL
DNF: abandon; DSQ: disqualifié; Vitesse en km/h
01/02/2023 - 02:48 - 188 Entrées
ChronoRace - Electronic Timing SPRL
http://www.chronorace.be

Page 1 / 4  
Houffatrail
VTT Houffalize, 07-08/12/2013, BEL
14km - Classement
14km 
Catégorie
PosNrNomAgeIOCEquipeTempsTkmMoy.RangNomLocalité
51.183COREMANS ThomasBEL1:33:276:41 8.9946MAL
52.299SCHULTING JornNLD1:34:286:45 8.8947MAL
53.203DELSART BenjaminBEL1:34:396:46 8.8848MAL
54.253LÉONARD MathieuBEL1:34:456:47 8.8749MAL
55.1043FDEBOCK JulieBEL1:34:456:47 8.876FEM
56.435BOUVY MarcBEL1:34:496:47 8.8650MAL
57.171BRONLET MathieuBEL1:35:086:48 8.8351MAL
58.336VANCAUTEREN MarkBEL1:35:366:50 8.7952MAL
59.186DE BAERDEMAEKER PieterBEL1:35:496:51 8.7753MAL
60.354VOLKERS AlexNLD1:36:026:52 8.7554MAL
61.303SMEYERS JanBEL1:36:136:53 8.7355MAL
62.166FBRAET SarahBEL1:37:116:57 8.647FEM
63.353VIRATI AndreaNLD1:37:266:58 8.6256MAL
64.358XAVIER DesséBEL1:37:336:59 8.6157MAL
65.259MATON VincentBEL1:37:577:00 8.5858MAL
66.341VANERMEN JanBEL1:38:267:02 8.5459MAL
67.160BLIEMERT NathanNLD1:38:397:03 8.5260MAL
68.343VARD MartinBEL1:39:127:06 8.4761MAL
69.216FLATON ColinNLD1:39:127:06 8.4762MAL
70.272PEETERS HeinBEL1:39:127:06 8.4763MAL
71.198DEGEN RomainBEL1:40:417:12 8.3464MAL
72.235HENET CédricBEL1:40:417:12 8.3465MAL
73.234FHATERT GenevièveBEL1:40:487:12 8.338FEM
74.1078WYGAERTS NicolasBEL1:40:527:13 8.3366MAL
75.318TUYLS BrunoBEL1:41:037:14 8.3167MAL
76.153ATTAR MedhyBEL1:41:247:15 8.2868MAL
77.271PALMEN RobinNLD1:41:287:15 8.2869MAL
78.1082HOFMANS Philippe44BELJCPMF SOMBREFFE1:41:327:16 8.2770MALHOUTAIN-LE-VAL
79.1081MAURO François41BELJCPMF SOMBREFFE1:41:347:16 8.2771MALLIGNY
80.224FGIJBELS FriedaBEL1:41:357:16 8.279FEM
81.230GUIDEE ChristiaanBEL1:42:137:19 8.2272MAL
82.204DEN BROEDER MarkNLD1:42:157:19 8.2273MAL
83.320UYTTERSPROT DieterBEL1:42:487:21 8.1774MAL
84.222FGEYTER GretaBEL1:42:507:21 8.1710FEM
85.164FBOSMANS PatriciaBEL1:43:337:24 8.1111FEM
86.162FBOK JenniferNLD1:43:347:24 8.1112FEM
87.281FPONCIN LaurenceBEL1:43:447:25 8.1013FEM
88.309STRUYF VincentBEL1:43:447:25 8.1075MAL
89.192DE ROECK NicolasBEL1:43:537:26 8.0976MAL
90.275PEPPING GeertNLD1:43:597:26 8.0877MAL
91.215FLAMAND ThierryBEL1:44:527:30 8.0178MAL
92.331FVAN HELMOND KarlijnNLD1:44:557:30 8.0114FEM
93.332VAN HELMOND GerryNLD1:45:017:31 8.0079MAL
94.1079JAEKEN Raf40BEL1:45:107:31 7.9980MAL
95.156FBARTHÉLEMY ChloéBEL1:45:117:31 7.9915FEM
96.155BARTHÉLEMY MichaelBEL1:45:187:32 7.9881MAL
97.344VERBOVEN MaartenNLD1:45:197:32 7.9882MAL
98.1059KROMHOUT LarsBEL1:45:547:34 7.9383MAL
99.152ASSELMAN EricBEL1:47:477:42 7.7984MAL
100.355FVREHEN GuusjeBEL1:48:027:43 7.7816FEM
DNF: abandon; DSQ: disqualifié; Vitesse en km/h
01/02/2023 - 02:48 - 188 Entrées
ChronoRace - Electronic Timing SPRL
http://www.chronorace.be

Page 2 / 4  
Houffatrail
VTT Houffalize, 07-08/12/2013, BEL
14km - Classement
14km 
Catégorie
PosNrNomAgeIOCEquipeTempsTkmMoy.RangNomLocalité
101.228FGRAUWELS LarissaBEL1:48:067:44 7.7717FEM
102.593LACROIX PatrickBEL1:48:347:46 7.7485MAL
103.212FDRUINE PaulineBEL1:49:027:48 7.7018FEM
104.307STAD WillemNLD1:49:137:49 7.6986MAL
105.313MERCHIE RikBEL1:49:157:49 7.6987MAL
106.291ROEF DaveBEL1:49:267:49 7.6888MAL
107.195DE WOLF RobbertNLD1:50:027:52 7.6389MAL
108.302FVAN DEN WILDENBERG SandraBEL1:50:597:56 7.5719FEM
109.733FVAN DEN EINDEN MaaikeNLD1:50:597:56 7.5720FEM
110.169FBROEDERS MiekeNLD1:51:037:56 7.5621FEM
111.328VAN GEMERT PeterNLD1:51:047:56 7.5690MAL
112.352VEULEMANS BertBEL1:51:167:57 7.5591MAL
113.342VANMECHELEN NickBEL1:51:227:58 7.5492MAL
114.323FVAN BUUL ElkeNLD1:51:337:59 7.5322FEM
115.190DE NIJS MartijnNLD1:51:377:59 7.5393MAL
116.150AERTS KenNLD1:51:407:59 7.5294MAL
117.468CREEMERS ThomasNLD1:51:417:59 7.5295MAL
118.326VAN DER LINDEN ErikBEL1:51:488:00 7.5196MAL
119.316FTURLOT ValérieBEL1:52:398:03 7.4623FEM
120.184D'HERDE MarcBEL1:52:398:03 7.4697MAL
121.1076ROUFFIGNON Vincent42BEL1:52:468:04 7.4598MAL
122.283RAIJMAKERS JeroenNLD1:53:548:09 7.3899MAL
123.327FVAN DYCK MaryLUX1:53:598:09 7.3724FEM
124.1084FNEY NathalieBEL1:53:598:09 7.3725FEM
125.255LEYS KimBEL1:54:008:09 7.37100MAL
126.208FDEWAELE ChristelBEL1:54:058:09 7.3626FEM
127.288REYNERTZ PierreBEL1:54:068:09 7.36101MAL
128.265FNATHALIE LaurentBEL1:54:078:10 7.3627FEM
129.233FHARSEVOORT - PIEFFERS JennekeNLD1:54:108:10 7.3628FEM
130.173FBULTE KaatBEL1:54:188:10 7.3529FEM
131.174BUYS StijnBEL1:54:478:12 7.32102MAL
132.289FROBESYN ValerieBEL1:54:478:12 7.3230FEM
133.207FDEVULDER ValerieFRA1:54:528:13 7.3131FEM
134.305FSPIES SabineBEL1:55:148:14 7.2932FEM
135.231HANNES DannyBEL1:55:168:14 7.29103MAL
136.205FDEPROOST TaschaBEL1:55:438:16 7.2633FEM
137.250FLAVAUX AudreyBEL1:56:128:18 7.2334FEM
138.210DHONDT YorbenBEL1:56:188:19 7.22104MAL
139.132PLAYOUST Adrien40FRAEMYR1:56:288:20 7.21105MALBERCHEM-SAINTE-AGATHE
140.243FKAMPMAN EllyNLD1:56:318:20 7.2135FEM
141.333FVAN IJKEN EsmeNLD1:56:418:21 7.2036FEM
142.131FDERAUX Cecile42BELEMYR1:56:468:21 7.1937FEMMOLENBEEK-SAINT-JEAN
143.301SEVIGNANI ChristopheBEL1:57:068:22 7.17106MAL
144.329FVAN GEMERT MarjaNLD1:57:118:23 7.1738FEM
145.351FVERVLIET ValérieBEL1:57:288:24 7.1539FEM
146.268FOKKERS AnneliesNLD1:57:378:25 7.1440FEM
147.263MONBAILLIU YoshiBEL1:57:578:26 7.12107MAL
148.242FJANSSEN LouiseNLD1:58:118:27 7.1141FEM
149.227FGOREL BirgitNLD1:58:308:28 7.0942FEM
150.337VANDEN BROECK PhilippeBEL1:59:538:34 7.01108MAL
DNF: abandon; DSQ: disqualifié; Vitesse en km/h
01/02/2023 - 02:48 - 188 Entrées
ChronoRace - Electronic Timing SPRL
http://www.chronorace.be

Page 3 / 4  
Houffatrail
VTT Houffalize, 07-08/12/2013, BEL
14km - Classement
14km 
Catégorie
PosNrNomAgeIOCEquipeTempsTkmMoy.RangNomLocalité
151.175CARÊME ThibautBEL1:59:588:35 7.00109MAL
152.339VANDERHENST AntoineBEL2:01:418:42 6.90110MAL
153.297SCHOETERS StevenBEL2:02:198:45 6.87111MAL
154.306SPOELSTRA PeterNLD2:03:208:49 6.81112MAL
155.236FHENS SarahBEL2:03:368:50 6.8043FEM
156.220GEERTS RikBEL2:03:418:51 6.79113MAL
157.170FBRONKHORST KarenNLD2:03:438:51 6.7944FEM
157.191FDE PAUW AnnieNLD2:03:438:51 6.7944FEM
159.199FDEJARDIN FrederiqueBEL2:03:488:51 6.7946FEM
160.261FMEYSSONNIER JulieFRA2:05:088:57 6.7147FEM
161.340VANDERPUTTEN QuentinBEL2:05:559:00 6.67114MAL
162.1077D'HONT NicoBEL2:06:029:01 6.67115MAL
163.168FBREDERO QuirineBEL2:09:369:16 6.4848FEM
164.225FGILBERT ElliBEL2:09:389:16 6.4849FEM
165.262FMOLENAAR AnjaNLD2:11:159:23 6.4050FEM
166.197DEBOIS KristiaanBEL2:12:539:30 6.32116MAL
167.165FBOURS MichèleBEL2:12:599:30 6.3251FEM
168.294ROZENBLAT StéphaneBEL2:13:119:31 6.31117MAL
169.240FISABELLE GaignageBEL2:13:239:32 6.3052FEM
170.277FPETRY CatherineBEL2:13:489:34 6.2853FEM
171.276PETIT PascalBEL2:13:489:34 6.28118MAL
172.260FMETTEPENNINGEN SanneBEL2:14:269:37 6.2554FEM
173.211DOMS JerryNLD2:15:189:40 6.21119MAL
174.286RAWOE BrunoBEL2:16:039:44 6.17120MAL
175.218FGASPARD CatherineBEL2:22:4910:13 5.8855FEM
176.317TUYBENS GeorgesFRA2:23:2810:15 5.86121MAL
177.295FSALOMONS ClaudetteNLD2:23:3610:16 5.8556FEM
178.256FLIBERT SolangeBEL2:23:3710:16 5.8557FEM
179.249LAMBRECHT PhilippeBEL2:23:3810:16 5.85122MAL
180.287FREIN KarinNLD2:23:4410:16 5.8458FEM
181.298FSCHULTING JacquelineNLD2:23:4510:17 5.8459FEM
182.244FKAPTEIJN ArienneNLD2:26:1910:28 5.7460FEM
183.345FVERBRUGGEN AstridNLD2:33:0610:57 5.4961FEM
184.206FDERWORT ClaudiaNLD2:33:1310:57 5.4862FEM
185.1025KUIPER Joop53NLD2:33:5111:00 5.46123MALGB UGCHELEN
DSQ292FROEMER TjardaNLDFEM
DNF196FDE WOLF JozefienBELFEM
DNF357WYGAERTS NicolasBELMAL
DNF: abandon; DSQ: disqualifié; Vitesse en km/h
01/02/2023 - 02:48 - 188 Entrées
ChronoRace - Electronic Timing SPRL
http://www.chronorace.be

Page 4 / 4